Change the Weather History Date:

Tuesday, March 5, 2013

  Actual Average (KLJF) Record (KLJF)
Temperature  
Mean Temperature 26 °F -  
Max Temperature 33 °F 34 °F 60 °F (1987)
Min Temperature 19 °F 16 °F -14 °F (1960)
Degree Days  
Heating Degree Days 39    
Moisture  
Dew Point 19 °F    
Average Humidity 67    
Maximum Humidity 74    
Minimum Humidity 52    
Precipitation  
Precipitation 0.01 in - - ()
Sea Level Pressure  
Sea Level Pressure 30.12 in    
Wind  
Wind Speed 11 mph (North)    
Max Wind Speed 18 mph    
Max Gust Speed 21 mph    
Visibility 4 miles    
Events Snow    
Averages and records for this station are not official NWS values.
T = Trace of Precipitation, MM = Missing Value Source: NWS Daily Summary

Daily Weather History Graph

Daily Weather History Graph

Search for Another Location

Airport or City:

Trip Planner

Search our weather history database for the weather conditions in past years. The results will help you decide how hot, cold, wet, or windy it might be!

Date:

Astronomy

Mar. 05, 2013 Rise Set
Actual Time 6:50 AM CST 6:13 PM CST
Civil Twilight 6:21 AM CST 6:43 PM CST
Nautical Twilight 5:47 AM CST 7:17 PM CST
Astronomical Twilight 5:13 AM CST 7:51 PM CST
Moon 2:15 AM CST 11:41 AM CST
Length of Visible Light 12h 21m
Length of Day
11h 22m
Last Quarter, 40% of the Moon is Illuminated
Mar 5
Last Quarter
Mar 11
New
Mar 19
First Quarter
Mar 27
Full
Apr 2
Last Quarter

Hourly Weather History & Observations

Time (CST) Temp. Windchill Dew Point Humidity Pressure Visibility Wind Dir Wind Speed Gust Speed Precip Events Conditions
12:35 AM 28.4 °F 18.0 °F 21.2 °F 74% 29.94 in 5.0 mi ESE 12.7 mph - N/A   Haze
12:55 AM 28.4 °F 17.5 °F 21.2 °F 74% 29.94 in 5.0 mi ESE 13.8 mph - N/A   Haze
1:15 AM 28.4 °F 17.5 °F 21.2 °F 74% 29.94 in 5.0 mi ESE 13.8 mph - N/A   Haze
1:35 AM 28.4 °F 19.1 °F 21.2 °F 74% 29.94 in 5.0 mi ESE 10.4 mph - N/A   Haze
1:55 AM 28.4 °F 19.1 °F 21.2 °F 74% 29.94 in 4.0 mi East 10.4 mph - N/A Snow Light Snow
2:15 AM 28.4 °F 19.1 °F 21.2 °F 74% 29.94 in 1.8 mi East 10.4 mph - N/A Snow Light Snow
2:35 AM 28.4 °F 19.7 °F 21.2 °F 74% 29.94 in 2.0 mi East 9.2 mph - N/A Snow Light Snow
2:55 AM 28.4 °F 19.7 °F 21.2 °F 74% 29.94 in 2.0 mi East 9.2 mph - N/A Snow Light Snow
3:15 AM 28.4 °F 19.7 °F 21.2 °F 74% 29.93 in 1.8 mi East 9.2 mph - N/A Snow Light Snow
3:36 AM 28.4 °F 20.4 °F 19.4 °F 69% 29.93 in 1.2 mi East 8.1 mph - N/A Snow Light Snow
3:55 AM 28.4 °F 21.2 °F 21.2 °F 74% 29.93 in 1.8 mi East 6.9 mph - N/A Snow Light Snow
4:16 AM 28.4 °F 20.4 °F 21.2 °F 74% 29.93 in 2.0 mi East 8.1 mph - N/A Snow Light Snow
5:15 AM 28.4 °F 23.3 °F 21.2 °F 74% 29.96 in 1.8 mi ENE 4.6 mph - N/A Snow Light Snow
5:35 AM 28.4 °F 24.6 °F 21.2 °F 74% 29.97 in 2.0 mi NE 3.5 mph - N/A Snow Light Snow
5:55 AM 28.4 °F 22.2 °F 21.2 °F 74% 29.97 in 2.5 mi NE 5.8 mph - 0.01 in   Overcast
6:35 AM 28.4 °F 20.4 °F 21.2 °F 74% 29.98 in 3.0 mi NE 8.1 mph - N/A Snow Light Snow
6:55 AM 28.4 °F 19.7 °F 21.2 °F 74% 29.99 in 1.8 mi NNE 9.2 mph - N/A Snow Light Snow
7:15 AM 28.4 °F 20.4 °F 21.2 °F 74% 30.00 in 1.5 mi NNE 8.1 mph - N/A Snow Light Snow
7:35 AM 28.4 °F 19.1 °F 19.4 °F 69% 30.01 in 1.2 mi NNE 10.4 mph - N/A Snow Light Snow
7:55 AM 28.4 °F 19.7 °F 19.4 °F 69% 30.01 in 1.2 mi NNE 9.2 mph - N/A Snow Light Snow
8:15 AM 28.4 °F 19.7 °F 19.4 °F 69% 30.02 in 2.0 mi North 9.2 mph - N/A Snow Light Snow
8:35 AM 28.4 °F 19.1 °F 19.4 °F 69% 30.03 in 2.0 mi NNE 10.4 mph - N/A Snow Light Snow
8:55 AM 28.4 °F 19.7 °F 19.4 °F 69% 30.04 in 1.8 mi NNE 9.2 mph - N/A Snow Light Snow
9:15 AM 28.4 °F 19.7 °F 19.4 °F 69% 30.05 in 1.8 mi NNE 9.2 mph - N/A Snow Light Snow
9:35 AM 28.4 °F 19.7 °F 19.4 °F 69% 30.06 in 1.5 mi North 9.2 mph - N/A Snow Light Snow
9:55 AM 28.4 °F 19.1 °F 19.4 °F 69% 30.07 in 1.5 mi North 10.4 mph - N/A Snow Light Snow
10:15 AM 28.4 °F 19.1 °F 19.4 °F 69% 30.08 in 2.5 mi North 10.4 mph - N/A   Overcast
10:35 AM 28.4 °F 18.5 °F 19.4 °F 69% 30.09 in 1.5 mi North 11.5 mph - N/A Snow Light Snow
10:55 AM 30.2 °F 20.2 °F 19.4 °F 64% 30.09 in 1.2 mi North 12.7 mph - N/A Snow Light Snow
11:15 AM 30.2 °F 21.3 °F 19.4 °F 64% 30.10 in 1.8 mi North 10.4 mph - N/A Snow Light Snow
11:36 AM 30.2 °F 19.3 °F 21.2 °F 69% 30.11 in 2.0 mi North 15.0 mph - N/A Snow Light Snow
11:55 AM 30.2 °F 18.9 °F 19.4 °F 64% 30.11 in 3.0 mi North 16.1 mph - N/A Snow Light Snow
12:15 PM 30.2 °F 19.3 °F 19.4 °F 64% 30.12 in 4.0 mi North 15.0 mph - N/A Snow Light Snow
12:35 PM 32.0 °F 21.6 °F 19.4 °F 60% 30.12 in 7.0 mi North 15.0 mph - N/A   Scattered Clouds
12:55 PM 32.0 °F 22.1 °F 19.4 °F 60% 30.12 in 7.0 mi North 13.8 mph - N/A   Mostly Cloudy
1:15 PM 32.0 °F 21.6 °F 19.4 °F 60% 30.13 in 10.0 mi NNW 15.0 mph - N/A   Mostly Cloudy
1:35 PM 33.8 °F 23.9 °F 19.4 °F 56% 30.14 in 10.0 mi North 15.0 mph - N/A   Overcast
1:56 PM 32.0 °F 21.2 °F 17.6 °F 55% 30.14 in 10.0 mi North 16.1 mph 20.7 mph N/A   Overcast
2:15 PM 33.8 °F 23.2 °F 17.6 °F 52% 30.15 in 10.0 mi North 17.3 mph 20.7 mph N/A   Overcast
2:35 PM 33.8 °F 23.9 °F 17.6 °F 52% 30.16 in 10.0 mi North 15.0 mph - N/A Snow Light Snow
2:56 PM 33.8 °F 25.3 °F 17.6 °F 52% 30.16 in 7.0 mi NNW 11.5 mph - N/A Snow Light Snow
3:15 PM 33.8 °F 24.3 °F 17.6 °F 52% 30.17 in 7.0 mi NNW 13.8 mph - N/A Snow Light Snow
3:35 PM 33.8 °F 24.8 °F 19.4 °F 56% 30.18 in 3.0 mi NNW 12.7 mph - N/A Snow Light Snow
3:55 PM 32.0 °F 20.8 °F 23.0 °F 69% 30.19 in 1.2 mi NW 17.3 mph - N/A Snow Light Snow
4:16 PM 32.0 °F 21.2 °F 21.2 °F 64% 30.19 in 1.8 mi NW 16.1 mph - N/A Snow Light Snow
4:35 PM 32.0 °F 20.5 °F 21.2 °F 64% 30.20 in 1.8 mi NW 18.4 mph - N/A Snow Light Snow
4:55 PM 30.2 °F 18.1 °F 21.2 °F 69% 30.21 in 5.0 mi NW 18.4 mph - N/A Snow Light Snow
5:15 PM 30.2 °F 18.9 °F 21.2 °F 69% 30.22 in 7.0 mi NW 16.1 mph - N/A Snow Light Snow
5:35 PM 30.2 °F 18.5 °F 19.4 °F 64% 30.22 in 5.0 mi NNW 17.3 mph - N/A Snow Light Snow
5:55 PM 30.2 °F 19.8 °F 19.4 °F 64% 30.23 in - NNW 13.8 mph - N/A   Mostly Cloudy
6:15 PM 30.2 °F 21.3 °F 19.4 °F 64% 30.25 in - NNW 10.4 mph - N/A   Mostly Cloudy
6:35 PM 30.2 °F 19.3 °F 19.4 °F 64% 30.26 in - NNW 15.0 mph - N/A   Overcast
6:55 PM 26.6 °F 16.2 °F 17.6 °F 69% 30.26 in - NW 11.5 mph - N/A   Scattered Clouds
7:15 PM 24.8 °F 14.6 °F 15.8 °F 69% 30.27 in - NW 10.4 mph - N/A   Clear
7:35 PM 24.8 °F 15.3 °F 15.8 °F 69% 30.27 in - NW 9.2 mph - N/A   Mostly Cloudy
7:55 PM 26.6 °F 15.7 °F 17.6 °F 69% 30.28 in - NW 12.7 mph - N/A   Overcast
8:15 PM 26.6 °F 15.7 °F 15.8 °F 64% 30.28 in - NW 12.7 mph - N/A   Overcast
8:35 PM 26.6 °F 16.2 °F 15.8 °F 64% 30.29 in - WNW 11.5 mph - N/A   Overcast
8:55 PM 24.8 °F 13.4 °F 15.8 °F 69% 30.29 in - NW 12.7 mph - N/A   Overcast
9:15 PM 24.8 °F 13.4 °F 14.0 °F 64% 30.30 in - NW 12.7 mph - N/A   Overcast
9:35 PM 21.2 °F 11.7 °F 12.2 °F 68% 30.30 in - NW 8.1 mph - N/A   Scattered Clouds
9:55 PM 19.4 °F 7.2 °F 10.4 °F 68% 30.31 in - NW 11.5 mph - N/A   Scattered Clouds
10:15 PM 19.4 °F 7.9 °F 10.4 °F 68% 30.32 in - NW 10.4 mph - N/A   Mostly Cloudy
10:35 PM 19.4 °F 8.6 °F 10.4 °F 68% 30.32 in - NW 9.2 mph - N/A   Overcast
10:55 PM 21.2 °F 11.7 °F 12.2 °F 68% 30.32 in - NW 8.1 mph - N/A   Overcast
11:15 PM 21.2 °F 9.5 °F 12.2 °F 68% 30.32 in - NW 11.5 mph - N/A   Overcast
11:35 PM 21.2 °F 12.6 °F 12.2 °F 68% 30.33 in - WNW 6.9 mph - N/A   Overcast
11:55 PM 21.2 °F 10.9 °F 12.2 °F 68% 30.33 in - NW 9.2 mph - N/A   Overcast